星链-3271 (STARLINK-3271 )

导读 | 豆包AI

STARLINK-3271是美国SpaceX公司星链互联网卫星星座的成员,于2021年12月18日由美国发射升空。星链项目旨在通过近地轨道卫星星座为全球提供高速低延迟的宽带互联网接入,尤其覆盖偏远与网络空白区域。STARLINK-3271承担星座组网任务,助力星链实现全球覆盖,支撑地面消费互联网、物联网及特殊场景通信服务,是SpaceX大规模部署星链星座过程中的一环,推动低轨卫星互联网商业化发展。

Basic Information
目录编号:
50167
目录名称:
STARLINK-3271
国际标识:
2021-125M
轨道中心:
EARTH
卫星名称:
星链-3271
卫星全名:
星链-3271 (STARLINK-3271 )
卫星状态:
在轨 (已飞行1547 天)
发射日期:
2021-12-18 UTC
国别 :
美国 (US)
星等 :
--
Orbit Information
数据来源 国际轨道数据 AOE轨道数据
星历时间 2026-03-14T18:53:15+0800
10小时前
查看轨道信息
2026-03-14T09:00:00+0800
20小时前
查看轨道信息
半长轴 6917.881km 6917.877km
偏心率 0.000139 0.0001305
轨道倾角 53.216° 53.216°
近地点辐角 88.308° 79.641°
升交点赤经 237.747° 239.600°
平近点角 271.807° 201.434°
近地点 538.782km 538.837km
远地点 540.706km 540.643km
周期 95.438分钟 95.437分钟
每日圈数 15.088401 15.088412
Detailed Information
固有亮度:
5
最大亮度:
2.5
卫星平台:
Starlink v1.5
覆盖范围:
全球
运营商:
太空探索技术公司
运营商所在国:
美国
制造商(研发单位):
太空探索技术公司
制造商所在国:
美国
使用方式:
暂无
Satellite Introduction
星链(Starlink)计划是由太空探索技术公司(SpaceX)提出的一个巨型低轨卫星互联网星座项目,计划在2019年至2024年间在太空搭建由约1.2万颗卫星组成的“星链”网络,其中1584颗将部署在地球上空550千米处的近地轨道,并从2020年开始工作。该卫星仍在工作。
2D Orbit Map
3D Orbit Map
Orbit Altitude Analysis Chart
Orbit Inclination Analysis Chart
Orbit Comprehensive Analysis Chart
View Comprehensive Chart